GFSNGP_925_thetae_021.txt.gz
Theta_e
331 328 326 325 323 323 325 327 329 328 331 333 335 337 342 345 344 344 344 345 349 349 353 354 354 353 352 352 352 352 354 351 348 342 342 338 333 329 326 337 331 328 332 332
332 330 327 326 325 324 324 324 327 327 332 333 336 336 336 340 341 345 346 346 347 348 349 352 352 351 351 352 353 354 353 351 346 342 341 337 334 330 326 335 331 331 332 334
328 329 325 326 326 326 326 326 327 330 331 336 333 335 339 343 342 345 347 347 346 348 351 349 348 348 349 351 353 354 352 350 344 342 341 338 333 332 332 331 333 333 329 335
332 326 326 326 326 326 326 326 327 328 332 335 335 336 338 340 342 344 344 346 345 343 345 346 345 346 348 351 354 353 351 347 345 343 342 340 336 333 333 335 335 334 335 337
336 332 328 332 336 327 325 329 330 332 333 337 336 333 337 334 334 339 340 342 342 340 341 342 344 347 350 352 353 352 350 347 345 344 343 339 335 334 335 336 336 336 336 337
336 333 332 333 336 336 337 332 337 338 340 340 337 338 339 335 334 336 338 341 343 342 343 344 343 347 350 352 352 351 350 347 345 343 342 339 337 336 336 335 336 337 336 337
341 336 334 338 337 336 338 337 337 337 338 338 340 339 338 336 338 338 337 339 340 343 345 346 346 346 349 350 351 351 349 347 345 342 340 339 338 337 337 337 338 338 336 335
344 342 338 335 336 341 339 337 337 337 338 339 339 341 343 343 345 345 346 346 345 346 347 346 347 349 349 350 350 349 346 345 344 343 341 340 338 339 339 339 339 338 337 334
343 341 335 331 335 333 333 336 337 343 343 345 344 344 344 345 344 344 344 344 343 345 345 346 346 346 346 341 343 344 346 345 341 340 340 339 338 339 339 338 340 338 333 334
342 337 332 329 328 327 327 328 328 330 333 336 340 341 344 344 344 344 343 343 343 345 345 344 343 341 342 342 343 344 344 343 343 343 342 341 340 340 339 337 336 333 331 332
339 335 332 328 329 328 327 325 325 326 328 334 340 342 344 345 345 344 343 341 340 342 343 340 340 340 340 340 339 341 342 342 341 339 337 332 332 330 331 329 329 331 331 331
340 335 335 330 328 326 326 325 325 325 325 327 331 337 341 342 342 342 342 340 341 340 340 338 337 338 338 337 338 339 338 337 336 334 331 328 326 323 326 327 329 329 329 329
334 331 329 325 323 320 321 320 321 321 321 321 322 328 331 333 335 336 339 338 339 339 338 338 338 338 336 337 337 336 333 330 330 332 328 325 324 324 322 316 321 322 322 322
325 324 323 321 320 319 319 318 319 319 318 319 320 320 321 324 328 332 334 338 338 337 336 336 337 336 334 334 331 331 329 325 328 329 329 326 325 327 325 322 320 314 314 314
322 321 322 321 321 320 319 320 320 319 319 320 319 320 321 322 323 327 332 335 336 337 337 335 335 334 332 330 330 329 330 329 327 326 328 328 327 325 324 323 320 317 313 312
320 320 320 321 321 321 320 320 320 320 320 321 321 321 320 320 321 322 327 333 337 338 335 335 335 334 332 331 330 330 330 330 331 331 327 327 326 325 323 321 319 318 318 317
321 322 322 323 323 322 322 322 322 322 322 322 322 320 321 321 321 321 325 330 332 335 333 333 333 331 331 330 330 331 332 329 327 328 328 327 326 325 323 321 321 320 320 317
322 322 323 323 323 323 323 323 324 324 324 323 323 322 323 323 324 324 328 331 332 331 330 330 330 330 331 331 331 330 329 328 328 328 327 326 325 324 323 322 321 320 318 315
321 322 322 322 323 323 324 324 323 322 322 324 325 326 325 325 325 325 328 330 330 332 328 328 328 328 327 326 327 329 328 328 327 327 327 325 324 324 323 321 320 318 317 316
319 320 321 321 321 322 324 323 323 322 320 321 324 325 326 323 324 327 328 327 327 326 327 327 328 328 328 326 325 326 326 326 327 326 325 324 324 323 322 320 318 317 317 316
318 319 319 320 321 321 321 322 322 323 323 323 324 325 325 324 325 325 326 326 325 326 326 324 325 326 325 323 322 323 324 324 324 325 324 324 323 323 321 318 317 318 315 315
318 318 318 318 319 320 320 321 323 323 323 323 323 324 324 324 323 323 323 324 324 322 323 322 324 322 320 318 318 317 317 320 322 323 323 323 322 322 320 319 318 315 314 314
318 318 318 318 319 318 319 320 321 322 322 321 321 320 321 322 322 322 323 321 321 318 318 319 319 320 319 318 316 314 313 313 312 312 313 315 318 318 319 318 316 314 313 313
317 317 317 317 317 318 320 319 319 320 320 321 320 319 318 319 320 320 320 319 319 317 317 315 315 315 314 312 312 312 312 311 311 310 310 308 310 312 313 314 315 314 311 311
317 317 317 317 318 318 318 318 318 319 319 319 319 319 320 318 317 317 317 317 318 318 318 316 314 313 312 312 311 310 310 309 309 308 308 307 307 308 310 311 311 311 311 312
317 317 316 316 316 314 315 316 317 318 318 318 317 317 317 319 319 317 317 316 316 317 317 317 316 314 314 312 311 310 310 310 309 309 308 306 306 307 308 308 308 308 308 308
315 312 315 315 313 311 312 313 315 317 316 316 316 315 316 316 316 316 317 317 317 316 316 316 316 315 314 314 313 312 311 311 310 310 309 307 306 305 306 306 306 306 306 306

GFSNGP_925_thetae_024.txt.gz
Theta_e
330 329 328 328 325 324 325 327 331 331 334 335 335 334 334 334 334 336 346 350 352 352 353 356 355 357 356 355 354 354 355 356 357 358 354 351 352 345 335 335 329 328 333 332
334 330 329 329 328 327 325 325 326 328 330 332 333 334 334 334 334 337 344 350 351 353 354 356 356 357 357 356 355 355 356 357 358 357 351 352 350 345 340 337 328 337 338 337
336 334 333 333 331 330 329 327 325 327 328 329 330 332 335 339 337 338 339 348 351 353 354 356 355 356 357 356 356 357 357 359 358 356 353 351 350 347 342 337 335 339 339 339
337 335 337 333 332 331 330 329 328 326 327 328 330 332 333 341 339 340 340 342 349 351 352 353 353 355 354 356 357 358 359 359 357 356 352 351 350 347 343 338 336 338 339 340
339 338 334 332 331 332 332 332 330 328 328 328 330 333 338 339 340 343 343 344 347 348 349 351 351 352 353 354 357 358 358 358 356 353 352 351 350 348 344 341 338 338 339 340
341 339 340 343 341 339 340 337 331 330 329 330 330 334 337 339 341 340 340 344 348 346 347 350 350 351 354 356 357 357 356 356 354 352 352 351 348 347 344 342 340 340 340 341
339 340 338 341 338 338 339 337 343 332 331 330 333 335 343 341 342 342 344 347 346 347 348 350 350 353 355 355 356 355 355 354 353 352 351 349 348 345 343 342 340 341 341 340
339 342 343 337 339 341 345 345 342 342 341 341 341 344 345 347 347 347 349 349 350 352 352 349 353 354 355 355 355 355 355 354 352 351 349 347 345 343 341 340 339 340 341 340
342 342 338 335 339 337 338 342 347 343 342 343 344 345 347 348 349 349 348 349 349 351 352 353 353 354 355 355 355 354 353 352 350 347 347 345 343 343 341 340 340 341 341 340
342 338 337 334 331 332 334 335 338 343 344 344 344 343 344 344 345 346 346 347 346 349 352 353 352 353 351 351 351 350 351 349 347 346 344 342 343 342 342 341 340 340 340 338
340 337 332 333 333 330 330 331 332 336 340 343 345 346 347 349 348 348 349 349 349 351 352 352 352 350 350 349 350 349 348 347 344 342 340 339 337 336 336 337 337 338 335 333
339 335 336 334 330 328 330 330 330 331 333 333 335 338 342 347 348 349 348 348 348 349 349 347 348 346 345 348 347 346 346 345 343 342 341 340 335 327 329 328 327 329 332 334
338 334 331 328 323 322 323 323 324 324 325 326 329 330 333 339 344 345 347 348 347 346 346 347 345 345 345 344 344 344 343 341 338 338 337 336 334 332 329 322 327 328 327 327
332 329 326 322 323 322 320 320 320 321 321 321 323 324 326 331 333 337 344 345 343 343 343 345 344 343 343 343 341 336 334 332 334 333 332 332 331 331 330 329 327 320 317 317
323 323 323 322 321 322 321 320 321 322 322 322 321 322 323 324 326 330 335 339 343 343 342 342 342 341 340 337 335 334 333 331 331 330 330 330 331 332 331 329 327 323 315 313
321 321 322 323 323 323 322 321 322 322 322 322 323 323 322 322 322 324 328 334 336 340 341 341 341 339 336 335 333 334 333 331 330 330 331 332 332 330 328 328 326 324 322 321
321 321 320 322 324 323 323 323 323 323 323 323 322 322 323 322 323 325 326 331 337 339 340 340 340 338 337 335 334 335 332 330 330 329 328 328 328 328 327 326 326 325 324 322
323 322 324 323 323 323 324 324 324 325 326 326 326 327 327 326 327 327 329 333 336 336 337 337 336 336 336 335 334 332 331 329 328 329 329 329 328 328 327 326 325 324 323 319
324 324 324 324 324 325 325 325 324 324 325 327 327 329 328 329 330 330 333 334 334 334 334 332 331 333 334 333 332 331 330 330 329 329 329 328 327 326 326 325 324 323 321 320
323 323 323 323 324 325 326 324 324 325 325 326 328 328 329 329 330 330 330 330 330 331 332 330 332 332 332 327 328 329 329 329 329 329 328 327 326 326 325 324 323 321 320 319
320 320 320 321 322 322 324 325 325 325 325 326 327 328 328 328 328 327 327 330 329 327 327 328 328 328 327 324 324 325 325 326 326 326 326 325 325 325 325 324 322 320 319 318
320 320 320 319 319 320 320 322 324 324 324 324 325 326 326 326 326 326 326 325 323 322 323 324 322 321 320 319 321 320 321 322 323 324 324 325 325 324 324 323 321 319 319 316
320 319 319 319 320 320 319 319 319 320 321 322 322 322 323 323 323 323 325 323 320 317 319 319 317 317 315 318 317 317 317 316 316 316 317 319 321 321 321 321 319 318 317 315
321 320 321 320 319 318 320 320 319 319 319 318 318 321 321 319 321 321 321 319 318 317 318 316 315 312 312 315 314 313 313 314 315 315 314 313 314 315 317 318 320 319 317 315
321 321 320 320 319 318 317 319 319 318 318 317 317 316 318 316 316 316 317 319 318 318 319 317 314 312 313 314 314 313 312 311 311 311 310 310 310 311 313 314 315 315 316 316
320 318 318 320 319 316 315 315 315 316 315 316 315 316 315 316 316 316 317 316 316 317 316 316 317 315 315 315 314 313 313 312 311 311 311 310 310 309 310 312 312 312 312 312
314 312 315 315 315 315 314 314 315 315 315 315 315 315 315 315 315 315 315 316 316 316 316 316 316 316 315 315 315 314 314 313 312 312 312 312 311 310 309 309 309 309 309 309

GFSNGP_925_thetae_030.txt.gz
Theta_e
330 328 331 331 331 329 330 331 332 332 339 338 339 344 343 344 344 345 346 347 354 351 355 361 357 355 353 353 354 356 360 364 366 368 367 366 365 365 363 363 362 356 352 349
331 329 329 331 331 331 331 330 330 331 332 335 338 340 346 340 341 345 346 345 352 359 360 362 364 360 356 355 355 355 357 362 363 366 368 368 366 365 364 363 361 356 351 348
335 331 331 332 333 332 330 331 330 331 333 335 336 338 343 346 340 347 345 344 348 358 360 362 363 362 359 357 358 355 359 360 362 365 368 368 367 365 365 363 359 354 350 347
335 336 338 332 331 331 333 330 328 329 331 332 335 336 336 340 344 345 346 344 347 342 355 358 356 358 363 360 361 360 361 363 364 367 369 369 367 366 364 362 357 352 348 345
336 334 332 333 332 332 333 336 333 332 333 332 331 332 334 334 336 340 342 346 348 340 338 353 354 356 360 365 362 363 363 368 368 369 370 369 367 365 362 361 355 352 347 344
335 334 335 335 331 332 332 338 337 335 336 334 337 336 334 336 334 335 335 336 344 340 337 341 355 357 363 364 366 364 367 366 369 370 369 367 365 362 361 360 355 350 347 344
332 334 332 332 333 337 341 345 347 343 342 340 341 345 349 345 340 334 336 338 336 339 346 353 356 358 365 366 368 366 367 368 369 368 368 366 361 358 357 356 354 350 347 344
334 338 336 336 339 340 350 350 348 347 345 344 345 344 344 346 343 344 351 348 343 352 354 362 359 365 368 369 368 367 366 368 367 366 363 361 358 353 355 354 350 347 344 343
335 337 347 341 348 345 343 345 346 346 343 342 342 342 341 350 351 347 348 352 350 352 370 364 368 368 369 371 367 367 366 365 363 360 358 356 354 353 349 348 346 344 345 344
334 335 343 342 340 341 342 344 344 345 344 343 343 342 345 350 351 351 354 359 358 363 369 372 368 368 369 367 364 363 363 362 361 357 353 351 350 348 346 345 345 346 346 346
340 348 343 341 340 340 342 344 345 348 349 352 354 355 355 358 359 356 360 363 360 367 368 369 368 366 365 364 363 362 361 356 353 351 349 344 342 345 345 345 345 344 344 344
348 335 336 343 339 340 341 342 343 345 347 348 350 351 351 353 356 357 360 359 361 360 359 361 360 359 358 360 360 357 352 351 349 346 341 339 339 337 338 340 339 340 341 339
333 332 330 336 333 332 332 334 336 336 337 339 343 347 349 351 347 347 351 352 354 354 354 356 358 358 359 357 354 352 350 348 347 346 344 342 338 334 327 328 330 331 333 333
329 330 330 327 328 326 326 326 325 327 328 330 332 336 343 345 348 350 351 350 350 351 351 353 353 354 354 352 352 351 349 347 346 346 346 344 341 338 332 328 328 324 326 327
330 327 325 325 324 325 325 325 325 326 325 326 327 327 330 338 342 346 346 346 348 350 350 349 349 349 348 349 346 346 346 344 342 341 340 339 338 337 333 332 329 322 318 319
324 325 324 325 327 327 326 323 324 327 325 324 326 325 325 328 329 333 338 343 345 348 346 347 347 345 343 341 339 339 337 337 336 334 333 333 333 332 332 333 328 323 322 319
325 326 327 325 324 325 325 324 323 322 328 328 327 325 326 325 329 332 334 339 342 344 344 344 344 342 341 340 340 336 333 331 331 333 331 331 332 332 331 331 330 328 326 322
318 320 321 324 326 325 327 326 326 321 327 328 328 329 329 331 333 330 333 339 339 340 340 339 340 339 340 339 338 336 332 330 331 332 332 332 331 330 330 329 329 328 327 324
321 322 322 323 323 326 327 326 325 326 327 328 328 329 329 329 330 334 336 335 337 338 337 331 327 334 338 337 337 333 334 331 331 332 331 329 329 330 330 327 326 326 324 321
325 324 325 326 326 326 327 326 326 327 328 328 329 329 332 332 332 332 333 334 334 333 334 334 334 335 335 334 332 332 332 332 333 329 328 324 330 327 327 327 326 325 322 322
323 322 324 325 326 324 325 326 325 327 327 327 328 330 330 328 329 330 330 331 331 332 332 330 326 326 329 327 326 327 329 329 330 331 329 328 327 327 327 327 326 325 324 323
321 321 323 322 322 323 324 323 323 323 323 325 326 326 327 328 327 327 327 327 326 323 322 321 318 315 319 321 323 324 326 326 326 326 326 326 326 326 326 325 325 324 323 323
323 324 322 322 324 323 321 320 320 320 320 320 324 325 324 324 325 326 326 321 321 320 317 314 313 314 314 318 321 321 321 321 321 323 324 325 325 325 324 325 324 324 324 323
321 322 321 318 320 322 325 320 320 320 320 320 320 321 321 323 322 322 320 319 317 319 320 317 316 315 313 316 318 318 317 317 318 318 318 318 319 319 322 322 322 323 323 322
320 322 319 318 324 321 320 319 320 319 320 320 320 320 318 318 318 317 321 320 317 317 318 318 318 317 316 315 316 317 316 316 315 314 314 314 314 315 314 313 315 319 321 321
319 319 317 317 316 316 316 317 317 317 318 318 317 317 317 317 317 317 318 318 318 318 317 319 318 318 318 318 317 317 317 315 315 314 314 313 312 313 313 313 312 312 314 316
315 313 315 314 313 313 313 313 314 314 314 315 314 314 315 316 317 316 316 317 317 317 317 318 318 317 317 317 318 318 317 317 317 316 316 316 315 314 314 314 313 312 312 313

GFSNGP_925_thetae_033.txt.gz
Theta_e
325 327 328 327 329 327 325 324 323 322 323 325 327 339 340 337 335 336 340 343 340 345 346 346 346 349 352 354 355 362 364 366 366 366 366 367 366 365 361 362 360 358 354 350
330 328 326 327 328 327 327 326 325 325 326 328 328 340 340 340 337 340 342 345 345 342 347 348 347 347 349 352 354 354 362 364 365 365 367 367 366 365 365 360 362 361 356 351
329 329 330 330 326 327 329 328 327 326 325 327 328 332 335 339 336 335 335 340 344 346 345 348 351 349 349 350 351 354 354 361 363 364 366 366 366 365 365 362 363 363 358 354
330 331 333 331 328 327 329 331 329 327 327 328 328 332 336 339 337 340 339 337 338 349 348 350 359 352 351 351 351 354 356 357 361 362 365 367 366 365 365 364 364 361 357 355
331 330 329 332 330 332 329 329 331 332 328 328 327 328 327 329 332 328 332 334 339 340 350 353 360 358 353 353 354 353 356 357 361 363 365 367 367 366 365 364 362 359 357 352
329 329 330 330 332 330 330 334 342 337 333 329 328 328 327 341 339 333 332 330 333 338 337 353 353 361 357 355 357 355 354 358 359 363 365 367 367 366 365 364 361 357 354 351
331 328 329 332 329 328 333 336 348 344 344 344 344 345 342 342 341 340 332 331 331 332 336 343 352 359 362 359 357 361 359 364 364 366 368 368 366 365 364 361 360 356 352 348
329 334 335 342 334 345 350 347 347 345 344 342 341 340 340 347 346 345 348 348 346 338 342 345 344 358 359 362 361 360 366 367 370 369 368 365 363 362 361 358 354 350 347 345
336 335 343 342 344 342 343 348 345 346 342 341 342 341 348 350 349 345 345 346 350 362 368 370 360 359 362 366 366 366 369 369 368 366 363 362 359 357 356 355 351 348 346 344
338 336 337 335 337 337 341 343 349 351 352 352 356 356 356 356 355 358 358 360 364 365 365 366 370 369 370 368 368 367 365 362 359 359 356 355 353 353 352 348 347 346 345 344
335 334 337 340 331 336 341 349 350 350 351 353 353 354 354 355 357 359 359 362 364 363 365 366 367 366 366 366 365 362 360 355 352 350 349 348 348 348 348 347 346 345 344 344
336 332 336 335 329 329 345 345 343 346 348 349 350 352 350 350 352 354 355 356 358 362 362 364 364 363 362 361 359 355 351 350 344 341 342 343 342 339 342 344 345 344 344 343
332 330 329 329 327 327 329 338 338 339 341 343 346 345 346 348 348 346 349 350 351 353 355 356 357 357 358 356 353 352 349 344 342 339 338 335 332 330 324 331 337 340 340 341
330 330 328 327 327 326 325 326 325 326 325 326 333 337 341 343 345 347 348 350 350 351 351 353 354 353 352 350 349 349 347 346 345 342 341 337 334 330 330 328 327 327 331 332
327 325 325 325 326 326 324 326 327 324 325 325 324 327 329 331 334 339 346 347 347 348 348 349 349 349 351 351 349 348 347 346 345 343 341 339 337 333 333 328 325 324 324 325
324 324 326 327 327 327 326 324 326 327 326 325 325 327 327 329 332 336 342 343 344 343 348 346 343 342 343 346 347 345 346 345 345 344 343 339 336 332 330 327 325 322 322 324
325 326 325 326 326 325 324 323 324 323 327 327 327 329 328 330 330 335 340 343 343 343 344 342 342 340 339 340 336 333 333 337 335 336 336 337 337 332 332 326 322 321 322 322
319 321 323 324 327 327 327 322 324 322 321 323 327 329 329 328 329 335 338 338 339 339 339 339 339 339 338 337 337 334 331 331 332 332 332 331 331 332 332 327 325 324 322 321
319 321 323 324 324 326 326 326 327 327 326 326 328 329 329 331 334 335 334 335 335 335 330 330 335 337 334 333 335 330 332 331 331 332 332 330 330 329 328 329 328 326 325 322
324 324 325 326 326 326 326 326 327 327 327 327 328 328 329 331 331 330 329 332 332 333 333 333 328 323 322 323 326 326 325 329 330 329 329 328 328 328 328 326 327 327 325 323
324 323 325 324 324 325 326 324 324 324 325 327 327 327 327 329 329 329 329 326 328 328 324 321 327 327 325 329 328 328 331 331 331 329 327 328 328 328 328 327 326 326 324 323
322 322 323 324 324 323 321 321 322 321 324 324 324 326 327 327 325 322 323 321 317 318 315 314 313 314 318 320 320 323 328 331 329 328 327 327 327 327 326 327 326 325 323 322
321 320 319 322 324 324 322 320 320 320 321 323 323 323 324 324 323 321 318 319 317 316 316 317 315 314 313 318 318 319 319 324 327 327 326 326 325 325 324 324 325 324 324 323
322 319 318 321 323 323 320 320 318 320 321 320 320 322 322 323 323 319 319 318 318 319 319 317 318 317 313 315 316 316 316 316 315 314 322 324 325 323 323 323 323 323 323 323
319 317 316 315 318 317 318 319 317 318 317 317 316 318 318 318 318 321 320 318 317 317 318 319 318 318 317 318 317 317 316 316 315 314 313 313 313 312 315 316 320 321 322 323
316 319 314 312 311 311 311 312 316 315 316 315 314 313 314 317 317 317 317 317 317 317 317 318 317 318 317 318 318 318 318 317 316 315 315 315 315 315 314 313 312 312 312 319
312 311 310 309 309 308 310 309 309 311 309 309 310 310 313 315 313 313 314 315 315 316 316 317 316 316 316 316 317 317 316 317 318 317 317 316 316 316 317 316 315 314 313 313

GFSNGP_925_thetae_036.txt.gz
Theta_e
318 322 323 325 325 325 321 321 321 319 318 319 319 325 334 338 339 340 339 336 338 338 339 343 345 348 350 351 357 359 361 360 360 360 361 361 361 360 358 356 356 356 355 353
326 324 323 324 325 325 324 323 321 319 320 318 319 320 326 335 339 338 333 335 334 336 338 344 345 349 350 351 357 359 361 362 362 362 362 362 362 363 361 360 358 357 355 353
324 324 323 324 325 325 325 324 322 321 320 320 322 328 329 333 334 332 336 337 338 338 339 344 346 349 350 351 353 359 360 361 362 363 363 363 362 363 363 360 360 359 357 354
322 324 325 324 324 325 323 324 325 322 321 323 323 322 326 326 330 331 333 334 336 339 342 344 345 346 350 351 353 355 360 361 362 363 363 363 364 363 363 361 359 360 359 357
324 326 325 329 328 325 324 326 325 327 324 323 323 324 329 328 330 331 330 330 331 338 343 345 346 345 346 348 351 353 355 359 361 362 362 364 364 363 363 363 360 360 360 358
323 326 329 326 328 326 326 328 334 327 326 326 322 326 322 335 331 327 324 327 334 337 344 343 348 347 346 346 348 350 352 352 358 361 362 363 364 363 363 363 361 359 359 360
324 329 324 325 326 325 328 327 343 339 331 327 332 324 333 336 338 335 328 326 329 333 334 346 348 354 348 348 347 348 351 352 353 359 361 363 364 364 363 362 360 358 359 357
328 329 330 333 336 326 328 344 342 340 339 336 336 336 341 341 342 343 343 344 339 326 327 333 345 356 352 349 350 350 349 351 354 358 360 362 364 364 362 361 356 354 350 347
334 338 332 333 332 331 339 341 344 341 337 336 335 342 345 343 342 350 347 344 356 343 344 344 339 355 356 353 352 354 353 355 356 359 361 364 364 362 360 357 352 347 346 346
332 334 332 334 329 330 332 350 349 349 350 351 353 354 354 353 354 357 357 357 360 359 359 360 361 349 354 357 356 358 358 363 364 364 364 363 362 360 356 352 348 346 345 345
332 331 332 332 328 328 342 348 349 349 350 351 351 351 354 355 355 356 356 357 360 358 359 360 365 363 360 362 363 365 364 363 361 356 357 350 348 349 350 348 348 346 346 346
334 328 333 331 328 328 330 333 337 345 346 344 345 347 349 348 347 350 352 353 354 356 358 359 360 361 363 363 361 358 356 350 345 341 336 335 329 331 344 349 351 350 349 346
331 330 328 327 327 327 328 327 326 326 333 337 335 341 344 345 343 343 346 348 350 350 352 353 353 353 354 354 353 352 345 341 338 337 334 332 332 336 325 336 345 344 343 343
328 329 328 327 328 326 327 327 327 328 327 328 328 330 333 336 338 342 344 346 348 348 348 348 347 346 348 349 345 344 341 340 339 336 334 332 332 334 331 331 327 330 336 339
326 325 326 326 325 325 325 326 327 328 328 327 327 330 333 335 337 338 344 346 344 345 343 343 343 344 345 344 343 342 342 342 341 339 339 337 335 337 332 330 325 324 327 331
325 324 324 325 325 325 325 326 327 327 325 328 327 327 328 333 337 339 340 342 341 341 340 339 339 339 339 343 344 344 343 342 342 339 336 333 332 330 329 327 322 323 326 327
326 325 325 325 323 321 322 324 325 324 323 326 326 327 328 331 335 335 336 337 336 336 336 336 334 335 334 335 341 341 344 343 342 339 338 335 333 330 328 326 324 326 327 327
321 321 323 325 327 326 325 324 321 320 322 326 328 326 326 329 331 331 332 330 329 329 330 335 336 334 332 331 332 332 332 333 337 338 337 334 332 330 328 325 323 322 322 323
322 323 322 324 326 326 327 327 327 327 327 327 328 329 331 330 329 329 331 331 330 329 328 325 324 328 334 332 331 330 330 330 330 329 330 331 332 331 328 326 324 323 323 323
323 323 323 324 325 326 326 326 326 326 327 327 328 328 328 329 329 328 329 326 324 324 328 329 329 327 328 326 325 326 327 326 326 326 326 329 328 329 331 328 325 323 322 321
323 324 324 324 323 324 323 322 323 323 325 326 326 325 323 328 325 326 325 324 324 326 325 324 324 322 319 319 326 327 324 326 325 324 326 328 328 327 328 329 328 326 325 323
318 319 322 321 320 319 320 320 321 322 322 322 324 325 324 321 321 320 317 317 317 313 313 314 313 313 316 316 320 322 328 328 328 328 326 327 327 327 326 326 327 327 326 326
315 317 318 319 318 318 317 318 320 319 320 320 323 323 322 320 318 317 316 314 316 317 317 317 316 314 317 316 316 319 328 330 330 330 328 326 326 327 326 326 326 325 324 324
311 310 310 310 310 311 313 316 316 316 315 316 316 320 322 321 318 317 318 318 318 318 318 317 317 317 317 317 316 315 314 316 318 322 325 325 325 325 324 324 325 324 324 324
309 308 307 307 307 307 308 310 312 313 311 311 311 313 316 318 320 319 318 318 317 317 318 316 316 317 317 317 316 316 315 313 313 312 312 312 312 318 323 323 323 323 323 323
307 306 306 306 306 307 307 307 307 307 308 309 310 312 311 310 311 312 314 316 317 316 314 315 315 317 316 316 316 317 317 316 316 316 316 316 315 315 313 311 311 311 313 317
306 306 305 305 306 307 307 306 306 305 307 308 308 307 307 306 306 306 308 313 314 310 307 309 311 314 313 314 313 313 313 313 315 315 315 315 315 314 313 312 310 310 310 310

GFSNGP_925_thetae_042.txt.gz
Theta_e
317 318 319 319 320 320 320 319 320 321 319 318 319 320 321 321 329 334 335 336 336 338 337 336 337 339 342 344 346 348 349 349 350 350 350 350 350 351 352 352 351 350 348 351
318 319 319 320 320 320 320 319 320 319 319 317 318 317 320 322 326 332 335 336 336 337 337 336 336 339 342 344 347 348 349 349 350 351 351 350 350 350 350 351 352 352 350 350
319 318 319 321 320 320 319 318 320 320 320 318 317 317 318 320 320 326 332 335 335 335 336 337 336 338 342 343 347 348 350 350 350 351 351 351 351 350 349 350 351 352 351 351
318 318 323 318 319 321 320 320 318 318 320 320 320 320 319 318 321 319 324 332 334 333 334 335 337 337 340 343 346 349 350 350 350 351 351 352 352 352 351 350 349 350 351 351
320 319 318 319 332 336 333 323 320 319 319 319 320 319 319 317 317 319 320 326 332 333 333 334 335 339 340 342 344 349 351 351 351 352 352 353 354 354 353 353 352 351 351 351
316 322 323 324 333 333 334 332 330 331 323 321 318 319 322 319 320 320 322 324 327 330 331 331 332 334 339 343 344 347 351 352 353 353 354 354 354 355 355 355 355 355 353 352
314 321 321 325 333 332 331 330 332 333 332 331 319 322 322 320 319 321 322 323 324 326 333 334 334 334 340 343 345 346 348 352 354 355 355 355 355 355 356 356 357 357 357 355
313 321 323 329 332 336 330 331 333 335 335 333 333 320 320 323 323 324 323 323 324 328 329 335 337 340 342 344 343 346 347 351 353 355 356 357 357 357 358 358 358 359 358 357
315 317 320 329 330 329 328 332 332 333 334 341 343 323 324 332 337 339 346 346 328 321 338 343 341 340 339 341 343 346 347 349 353 355 356 357 358 358 359 359 359 359 359 357
321 322 329 331 329 328 329 331 331 332 341 345 335 341 348 350 352 355 354 354 353 353 352 351 357 350 346 346 348 345 343 347 348 350 354 357 358 358 359 360 360 360 358 355
319 317 326 331 329 329 330 331 331 333 339 349 351 353 353 352 352 351 351 350 351 352 352 351 353 356 360 358 352 349 345 343 345 348 349 348 352 357 358 354 360 355 353 348
314 317 319 328 327 328 330 330 331 333 342 341 345 347 348 348 346 346 346 348 348 349 350 350 350 353 357 360 356 354 352 350 344 339 338 341 340 333 340 340 336 337 335 333
314 322 324 326 327 327 329 329 330 332 334 340 340 343 344 343 341 338 340 342 342 344 344 342 342 347 350 354 354 350 344 341 339 338 339 339 338 334 330 330 332 337 334 334
314 321 327 326 327 326 327 328 328 332 333 334 337 341 341 339 339 339 339 337 339 341 342 341 341 342 345 348 348 345 343 342 339 339 338 336 335 334 332 332 330 330 333 331
323 324 324 326 325 327 326 327 328 329 332 335 334 337 339 339 339 338 336 334 335 335 334 336 337 339 341 342 342 341 340 338 339 340 340 338 337 336 336 334 331 322 323 331
325 326 325 326 327 327 327 326 327 328 328 333 334 335 335 335 333 333 333 334 334 333 331 332 335 337 339 340 338 339 339 339 338 336 334 332 331 331 330 328 324 324 324 319
325 325 325 324 323 323 323 324 326 326 327 328 332 332 332 330 329 328 328 328 328 328 329 333 335 339 340 339 336 334 336 334 334 332 331 330 330 329 327 328 328 327 322 324
323 323 324 323 324 325 326 325 326 327 328 328 328 329 329 328 328 326 325 324 324 323 326 328 331 336 337 339 338 338 337 335 333 332 331 330 328 327 328 328 327 324 322 323
326 327 327 326 326 326 326 326 326 325 326 325 326 326 325 325 324 323 322 321 322 320 318 325 327 328 330 333 336 337 337 335 334 332 332 330 329 331 330 328 324 323 321 321
323 324 323 323 323 324 325 325 325 325 325 326 326 325 325 324 320 315 314 315 313 313 315 315 315 318 324 327 331 333 334 334 333 332 331 330 328 325 326 326 324 322 322 322
316 316 317 318 320 319 320 323 324 324 322 321 321 319 317 315 316 316 315 315 315 316 316 316 315 316 319 323 324 327 327 329 329 329 329 328 328 326 324 324 325 325 325 323
310 312 314 314 313 312 312 314 320 320 320 319 318 316 314 313 313 313 313 314 316 316 316 315 314 314 320 322 325 326 327 325 326 327 327 328 327 327 326 325 323 322 323 323
307 307 307 307 308 308 308 311 312 312 311 311 312 315 314 313 312 313 314 314 315 316 315 314 314 313 314 316 320 323 325 327 326 325 326 327 326 326 326 326 325 325 325 322
305 305 306 307 307 307 308 308 307 306 306 306 306 307 310 312 310 310 309 311 314 315 313 314 315 315 314 314 314 313 313 313 314 320 322 322 322 322 323 325 324 322 322 322
304 304 303 304 304 304 304 305 304 304 304 304 304 304 304 305 305 303 304 303 306 309 309 310 312 313 313 313 313 313 312 311 311 310 311 313 312 311 310 309 311 314 314 316
302 303 303 303 302 302 302 303 302 302 303 303 302 302 302 301 301 301 301 301 301 302 303 303 305 306 308 310 311 312 312 312 310 310 309 308 308 306 305 305 305 307 307 308
298 299 300 301 301 302 301 300 300 299 300 301 300 300 300 299 299 299 298 299 299 300 300 302 303 304 305 306 307 308 310 310 310 310 310 309 309 309 309 307 305 303 303 303

GFSNGP_925_thetae_045.txt.gz
Theta_e
319 319 320 322 322 322 324 326 329 327 329 327 326 329 331 331 332 333 336 341 344 346 348 348 347 346 345 346 347 348 350 351 352 352 353 353 353 353 353 353 352 350 350 350
317 318 319 321 322 322 322 323 323 324 326 326 327 329 330 331 332 334 335 338 343 347 348 349 347 346 345 346 347 348 350 351 351 352 353 353 354 354 353 354 353 353 352 351
317 317 319 322 322 323 323 323 323 325 325 326 326 327 331 333 334 334 335 339 342 346 349 351 345 345 345 346 347 349 350 351 351 353 353 354 354 354 354 355 355 354 353 352
315 318 322 322 322 327 324 323 323 323 324 324 326 329 330 333 333 334 334 335 337 338 342 344 343 342 344 345 348 350 351 352 352 353 354 354 354 354 354 354 355 356 355 354
314 318 319 319 321 334 334 329 331 327 325 325 325 327 331 329 330 333 335 337 334 332 335 341 343 343 344 347 348 351 352 353 353 353 354 354 355 354 354 354 354 354 355 356
315 314 318 321 322 324 334 331 335 337 335 332 332 328 328 333 330 330 330 331 332 331 333 337 342 341 344 348 350 352 352 352 353 353 354 355 355 355 355 354 354 353 354 355
313 316 317 318 326 335 341 332 337 339 340 341 341 332 336 334 330 331 333 333 330 331 336 339 339 340 347 347 350 349 351 352 353 354 354 355 355 356 356 356 356 356 355 354
313 313 314 316 329 332 335 335 336 339 340 341 340 342 342 341 338 329 333 332 329 334 335 337 341 339 346 351 347 349 350 353 355 356 355 355 356 356 357 357 356 357 358 358
314 313 314 317 322 330 332 334 335 338 340 341 341 343 346 346 339 336 348 345 330 336 343 346 347 345 349 349 349 351 351 352 355 357 357 357 358 358 358 357 357 357 359 359
317 316 318 318 320 323 330 332 334 337 339 339 342 346 350 345 343 356 357 352 347 356 357 357 353 351 350 349 348 349 353 355 356 357 358 359 359 359 359 360 360 359 360 360
314 313 313 318 319 324 330 332 335 338 337 337 346 351 343 350 357 355 353 353 355 357 357 358 359 361 360 353 352 352 352 353 354 355 356 356 355 359 361 361 361 361 360 359
313 313 317 318 318 323 327 332 336 337 335 338 349 351 353 354 353 353 352 352 352 352 352 353 356 358 356 358 356 354 353 351 345 342 342 342 343 344 353 358 359 360 357 353
313 313 313 316 315 314 319 330 333 332 335 340 347 346 343 344 344 340 343 343 344 345 346 349 351 350 350 353 351 349 344 341 339 342 339 337 339 337 332 336 339 339 337 335
312 312 313 314 314 316 327 331 329 331 337 338 341 341 341 341 339 338 340 341 340 341 341 342 344 344 345 346 346 346 344 342 342 344 342 341 340 339 338 333 330 329 330 331
311 311 313 314 318 323 329 329 331 334 339 339 338 338 337 337 336 335 336 340 340 339 338 338 340 342 340 342 342 342 342 341 340 340 339 337 335 333 333 335 337 328 328 331
315 319 316 315 323 328 328 327 333 337 337 339 340 336 334 333 333 332 333 335 336 338 337 337 337 337 337 339 339 338 336 338 339 338 338 340 340 340 336 333 330 325 324 327
319 325 325 328 327 328 327 327 331 336 337 335 335 335 334 333 331 330 328 328 328 330 333 337 339 341 339 338 337 335 334 334 335 335 337 338 337 336 333 332 329 326 323 324
322 325 325 325 327 328 327 328 332 331 331 330 329 330 328 327 327 325 324 324 324 322 324 328 333 337 338 339 338 337 336 334 335 335 334 334 333 332 332 331 329 325 324 325
324 326 326 327 327 327 328 329 329 328 327 326 325 323 320 318 317 317 318 318 319 320 319 320 324 331 333 335 338 339 338 337 336 335 334 332 333 333 331 331 329 326 322 325
317 317 318 320 324 326 326 324 323 324 325 322 319 318 318 318 318 318 318 318 317 317 318 318 321 322 326 330 335 337 337 338 338 336 335 334 332 331 330 328 329 328 329 328
311 313 313 315 316 318 319 319 318 318 317 316 317 317 317 315 315 317 318 318 315 315 316 316 318 320 321 327 328 330 332 333 334 334 333 332 331 330 329 330 329 328 327 325
310 310 311 311 311 311 311 311 311 311 313 315 316 316 316 317 316 315 313 313 313 313 313 314 315 316 320 324 328 329 328 329 330 330 331 330 328 326 326 324 325 325 324 323
309 308 307 309 310 308 308 307 308 309 309 311 315 314 313 313 314 315 313 309 309 311 312 312 314 315 315 316 318 319 318 321 322 326 327 327 328 328 326 325 325 325 324 323
307 307 307 307 306 305 306 305 305 305 306 306 306 307 312 311 308 307 305 305 307 308 308 310 313 314 315 315 314 313 312 315 315 318 318 317 318 317 316 318 319 318 319 320
305 305 305 305 306 306 305 305 305 305 304 304 303 302 302 302 302 302 304 304 304 306 307 306 308 310 312 314 314 312 311 309 309 310 312 311 310 312 310 311 310 311 310 309
302 303 303 303 304 304 304 304 303 303 304 303 303 302 302 302 301 302 301 302 302 303 304 304 305 306 307 308 310 311 310 310 310 310 309 307 306 306 308 308 306 305 303 304
301 300 303 302 301 301 301 301 301 300 301 301 300 300 300 300 300 300 300 300 300 300 301 301 302 302 303 303 304 305 306 307 307 308 308 308 308 308 308 307 306 305 304 306

GFSNGP_925_thetae_048.txt.gz
Theta_e
329 326 325 329 327 327 328 328 330 330 330 330 329 329 330 331 331 333 335 337 339 344 345 348 347 352 355 353 351 351 354 355 356 358 359 359 359 359 359 359 359 359 359 359
326 324 323 325 327 327 327 328 329 329 330 330 330 330 331 331 330 330 331 331 334 341 344 349 349 351 352 353 352 352 355 356 357 358 360 360 360 360 360 360 360 360 360 360
326 325 324 327 327 327 327 328 328 330 330 329 330 330 330 331 331 332 332 333 334 339 344 347 349 349 351 353 352 353 355 357 358 359 360 360 360 360 360 361 360 361 360 360
323 324 328 327 327 327 327 327 328 328 328 329 329 330 330 331 331 332 332 332 335 335 337 342 344 344 349 350 353 354 356 356 358 359 360 360 360 361 361 361 360 361 361 360
321 323 325 325 324 325 327 329 328 328 328 328 328 328 329 329 330 332 333 333 334 333 332 333 337 340 346 350 351 353 357 357 358 359 360 361 361 361 362 360 361 360 360 360
317 321 324 324 324 323 326 330 329 334 334 334 331 330 329 330 330 332 332 332 332 331 331 332 334 339 345 350 353 357 357 357 358 359 360 361 361 361 360 360 359 359 359 360
315 317 319 320 324 331 332 342 339 339 342 344 344 340 339 340 340 339 338 336 333 333 335 335 336 341 348 350 353 355 354 355 357 359 361 361 361 360 360 359 359 359 358 358
313 315 316 316 318 329 334 333 336 336 337 340 341 342 344 344 344 343 341 340 335 337 336 336 341 345 354 357 353 355 355 354 357 360 359 358 360 360 360 360 361 360 360 359
314 313 314 316 319 319 321 324 328 332 333 334 336 339 341 347 349 347 346 344 337 341 338 340 343 346 351 356 354 353 355 357 359 359 359 357 360 361 360 360 359 360 359 358
316 316 317 317 317 319 321 323 324 328 331 331 334 336 342 349 352 350 349 344 344 342 344 350 352 353 352 352 354 355 356 357 358 360 361 360 360 360 360 359 360 359 357 356
315 315 315 316 317 317 318 324 325 328 330 333 335 338 344 351 354 351 348 357 352 353 358 359 359 358 355 355 355 354 356 358 359 360 360 361 358 358 361 360 360 360 360 359
315 314 315 315 316 317 319 319 319 322 328 332 337 342 343 353 355 356 355 355 357 358 362 365 363 359 362 356 356 357 359 359 359 359 361 362 356 348 354 358 361 360 360 362
314 314 314 315 316 316 317 318 318 321 326 333 336 337 348 347 345 343 347 347 350 351 352 354 354 355 355 359 360 359 356 355 354 354 352 353 355 356 350 340 352 356 355 355
314 314 315 315 315 316 316 317 318 324 330 334 336 340 342 341 341 344 344 344 345 346 347 351 352 351 351 352 353 352 348 349 351 349 351 353 354 352 347 345 341 336 333 334
312 312 312 312 312 314 315 318 320 325 333 334 337 340 340 340 340 341 341 342 340 340 341 343 345 343 347 350 350 349 348 349 348 348 348 347 348 347 344 340 339 334 331 331
311 311 311 312 313 316 318 319 328 333 332 331 339 337 337 337 337 338 337 337 339 342 340 340 341 341 342 343 343 343 342 342 345 343 340 339 339 340 340 339 338 335 335 337
313 314 316 319 319 317 319 326 330 330 332 335 340 338 339 338 338 337 336 335 335 336 338 340 342 341 342 342 342 342 342 340 342 343 342 341 341 340 341 342 341 335 333 328
320 320 324 322 321 324 327 329 330 330 330 333 334 332 333 333 332 331 328 328 327 327 328 334 339 341 342 340 339 339 340 341 341 341 340 339 338 338 337 336 333 332 328 324
318 323 324 322 321 327 329 329 328 322 322 323 323 324 325 324 323 322 322 322 322 324 323 326 330 336 338 338 339 339 340 339 339 338 337 337 337 335 334 334 333 333 331 327
315 316 315 315 315 317 319 322 322 320 319 319 318 320 324 322 321 320 320 319 319 318 320 323 326 329 332 335 337 337 338 338 338 338 338 337 335 335 333 331 333 330 330 331
312 313 313 312 311 311 312 312 315 319 319 318 317 318 316 313 313 316 318 318 316 318 319 320 324 328 329 329 330 333 336 336 335 334 334 334 333 333 333 331 330 331 332 332
311 310 310 311 310 309 308 309 310 311 314 315 315 315 317 316 313 313 313 315 315 316 318 318 319 322 324 326 329 330 331 331 333 332 332 331 330 329 328 329 331 329 330 330
311 310 309 309 310 309 307 306 306 307 308 308 313 312 311 311 311 311 310 310 311 314 315 316 316 316 318 320 322 323 323 324 325 325 326 325 324 323 322 320 320 322 323 324
309 309 309 308 308 308 310 308 307 305 305 305 306 305 309 310 309 308 309 309 309 309 309 311 314 315 316 315 314 313 315 316 314 314 315 316 319 319 322 318 317 317 315 316
307 307 307 307 308 308 306 307 307 307 307 306 306 305 305 304 304 305 307 307 307 308 308 308 309 311 313 314 314 314 313 311 310 310 310 312 313 312 312 311 316 314 312 310
305 306 306 306 306 305 305 305 305 304 305 305 305 304 304 303 304 305 304 304 305 305 305 305 306 307 307 308 309 310 309 311 312 312 312 311 310 309 308 308 307 307 309 309
303 303 304 304 303 303 303 302 302 301 302 303 303 302 302 302 302 302 302 303 303 303 303 303 302 304 305 305 305 305 305 305 305 309 310 311 311 311 311 310 309 307 305 304